{"data":{"norad_id":57117,"intl_designator":"2023-090S","name":"STARLINK-6148","alt_names":[],"object_type":"PAYLOAD","status":"ACTIVE","operator":null,"country":"US","launch_date":"2023-06-23","launch_site_code":"AFETR","launch_vehicle":null,"mission":null,"orbit_class":"UNKNOWN","rcs_meters":null,"size_class":null,"mass_kg":null,"dimensions":null,"purposes":["comms"],"wikipedia_slug":null,"has_3d_model":false,"image_url":null,"decayed_at":null,"tle_current":{"epoch":"2026-05-24T15:40:59.857248Z","epoch_age_seconds":108297,"freshness":"FRESH","line1":"1 57117U 23090S   26144.65347057 -.00000322  00000+0 -21806-5 0  9999","line2":"2 57117  43.0017 212.2452 0001304 267.1329  92.9374 15.27575971161948","mean_motion":15.27575971,"eccentricity":0.0001304,"inclination_deg":43.0017,"raan_deg":212.2452,"arg_perigee_deg":267.1329,"mean_anomaly_deg":92.9374,"bstar":-2.1806e-6,"rev_number":16194,"period_min":94.266997343335,"perigee_km":482.16646010149,"apogee_km":483.9558605817,"semimajor_km":6861.1981603416,"source":"CELESTRAK","updated_at":"2026-05-25T13:38:18.242703Z"}}}